LVMDE SAME-SANR

Flight info

Callsign LVMDE
Flight time 0h 55m
Altitude 41000
Route MEBRA2C MEBRA UW3 CAT DCT TRH
Aircraft GLF6/M-SBDE2E3FGHIJ1J4J5P2RWXYZ/LB2D1G1

Departure

Time 2026-05-08 22:30
Airport Governor Francisco Gabrielli International Airport (SAME)

Arrival

Time 2026-05-08 23:25
Airport Termas de Río Hondo international Airport (SANR)
Time Latitude Longitude Altitude Speed Heading
2026-05-08 22:15 -32.82918 -68.79767 2319 ft 0 kts 269°
2026-05-08 22:25 -32.82909 -68.79779 2319 ft 3 kts 346°
2026-05-08 22:25 -32.82908 -68.79752 2319 ft 5 kts 128°
2026-05-08 22:25 -32.82928 -68.79704 2319 ft 7 kts 99°
2026-05-08 22:25 -32.82935 -68.79638 2319 ft 8 kts 101°
2026-05-08 22:26 -32.82972 -68.79576 2319 ft 10 kts 139°
2026-05-08 22:26 -32.83032 -68.79521 2319 ft 11 kts 159°
2026-05-08 22:26 -32.83117 -68.79511 2319 ft 13 kts 181°
2026-05-08 22:26 -32.83212 -68.79513 2319 ft 14 kts 181°
2026-05-08 22:27 -32.83317 -68.79514 2319 ft 15 kts 179°
2026-05-08 22:27 -32.83431 -68.79516 2319 ft 17 kts 180°
2026-05-08 22:27 -32.83555 -68.79517 2319 ft 18 kts 181°
2026-05-08 22:27 -32.83681 -68.79519 2319 ft 17 kts 181°
2026-05-08 22:28 -32.83808 -68.79521 2319 ft 18 kts 180°
2026-05-08 22:28 -32.83940 -68.79524 2319 ft 17 kts 183°
2026-05-08 22:28 -32.84028 -68.79514 2319 ft 11 kts 149°
2026-05-08 22:28 -32.84057 -68.79421 2319 ft 12 kts 100°
2026-05-08 22:29 -32.84066 -68.79324 2319 ft 10 kts 64°
2026-05-08 22:29 -32.83979 -68.79298 2319 ft 15 kts 358°
2026-05-08 22:29 -32.83620 -68.79297 2319 ft 110 kts
2026-05-08 22:29 -32.82545 -68.79288 2575 ft 191 kts
2026-05-08 22:30 -32.81092 -68.79262 3662 ft 228 kts
2026-05-08 22:30 -32.79431 -68.79175 4791 ft 256 kts 11°
2026-05-08 22:30 -32.77874 -68.78101 6051 ft 276 kts 50°
2026-05-08 22:30 -32.76999 -68.76180 7846 ft 273 kts 66°
2026-05-08 22:31 -32.76294 -68.74066 9136 ft 289 kts 69°
2026-05-08 22:31 -32.75610 -68.71843 10614 ft 294 kts 70°
2026-05-08 22:31 -32.74927 -68.69560 12056 ft 300 kts 70°
2026-05-08 22:31 -32.74236 -68.67223 13335 ft 309 kts 70°
2026-05-08 22:32 -32.73468 -68.64876 14530 ft 317 kts 60°
2026-05-08 22:32 -32.71959 -68.62953 15699 ft 323 kts 33°
2026-05-08 22:32 -32.70022 -68.61681 16993 ft 325 kts 22°
2026-05-08 22:32 -32.67939 -68.60634 18131 ft 335 kts 19°
2026-05-08 22:33 -32.65756 -68.59637 19321 ft 343 kts 17°
2026-05-08 22:33 -32.63532 -68.58653 20499 ft 351 kts 17°
2026-05-08 22:33 -32.61243 -68.57652 21620 ft 360 kts 17°
2026-05-08 22:33 -32.58854 -68.56611 22769 ft 369 kts 17°
2026-05-08 22:34 -32.56456 -68.55568 23833 ft 378 kts 17°
2026-05-08 22:34 -32.53977 -68.54491 24842 ft 388 kts 17°
2026-05-08 22:34 -32.51406 -68.53374 25842 ft 396 kts 17°
2026-05-08 22:34 -32.48837 -68.52258 26766 ft 405 kts 17°
2026-05-08 22:35 -32.46131 -68.51084 27666 ft 414 kts 17°
2026-05-08 22:35 -32.43444 -68.49918 28532 ft 422 kts 17°
2026-05-08 22:35 -32.40653 -68.48709 29381 ft 430 kts 17°
2026-05-08 22:35 -32.37838 -68.47490 30158 ft 439 kts 17°
2026-05-08 22:36 -32.34964 -68.46246 30945 ft 446 kts 18°
2026-05-08 22:36 -32.32018 -68.44971 31715 ft 453 kts 18°
2026-05-08 22:36 -32.29067 -68.43696 32417 ft 461 kts 18°
2026-05-08 22:36 -32.26020 -68.42380 33139 ft 468 kts 18°
2026-05-08 22:37 -32.22951 -68.41055 33833 ft 474 kts 19°
2026-05-08 22:37 -32.19856 -68.39719 34509 ft 481 kts 19°
2026-05-08 22:37 -32.16716 -68.38365 35241 ft 485 kts 19°
2026-05-08 22:37 -32.13553 -68.37003 35940 ft 489 kts 19°
2026-05-08 22:38 -32.10359 -68.35628 36566 ft 495 kts 19°
2026-05-08 22:38 -32.07017 -68.34495 37089 ft 498 kts
2026-05-08 22:38 -32.03568 -68.34205 37629 ft 496 kts 352°
2026-05-08 22:38 -32.00175 -68.34669 38255 ft 495 kts 347°
2026-05-08 22:39 -31.96781 -68.35252 38727 ft 501 kts 347°
2026-05-08 22:39 -31.93294 -68.35850 39239 ft 505 kts 347°
2026-05-08 22:39 -31.89835 -68.36441 39960 ft 503 kts 347°
2026-05-08 22:39 -31.86407 -68.37027 40569 ft 503 kts 347°
2026-05-08 22:40 -31.82968 -68.37615 40910 ft 510 kts 347°
2026-05-08 22:40 -31.79411 -68.38225 40917 ft 524 kts 347°
2026-05-08 22:40 -31.75797 -68.38841 40941 ft 532 kts 347°
2026-05-08 22:41 -31.68474 -68.40086 40906 ft 531 kts 347°
2026-05-08 22:41 -31.61207 -68.41277 40893 ft 533 kts 352°
2026-05-08 22:42 -31.53829 -68.40390 40884 ft 543 kts 18°
2026-05-08 22:42 -31.50469 -68.38285 40911 ft 545 kts 37°
2026-05-08 22:42 -31.47554 -68.35535 40931 ft 545 kts 37°
2026-05-08 22:43 -31.41244 -68.30589 40910 ft 545 kts 33°
2026-05-08 22:43 -31.34928 -68.25785 40912 ft 545 kts 33°
2026-05-08 22:44 -31.28563 -68.20951 40913 ft 545 kts 33°
2026-05-08 22:44 -31.22240 -68.16156 40914 ft 545 kts 33°
2026-05-08 22:45 -31.15904 -68.11359 40915 ft 545 kts 33°
2026-05-08 22:45 -31.09549 -68.06555 40916 ft 545 kts 33°
2026-05-08 22:46 -31.03215 -68.01776 40918 ft 545 kts 33°
2026-05-08 22:46 -30.96858 -67.96983 40917 ft 537 kts 31°
2026-05-08 22:47 -30.90612 -67.92285 40916 ft 528 kts 30°
2026-05-08 22:47 -30.84533 -67.87723 40909 ft 522 kts 30°
2026-05-08 22:48 -30.78462 -67.83170 40913 ft 523 kts 30°
2026-05-08 22:48 -30.72368 -67.78608 40912 ft 523 kts 30°
2026-05-08 22:49 -30.66260 -67.74041 40913 ft 523 kts 30°
2026-05-08 22:49 -30.57060 -67.67176 40914 ft 523 kts 30°
2026-05-08 22:50 -30.50930 -67.62611 40924 ft 523 kts 30°
2026-05-08 22:50 -30.44821 -67.58069 40936 ft 523 kts 30°
2026-05-08 22:51 -30.38694 -67.53521 40943 ft 523 kts 30°
2026-05-08 22:51 -30.32547 -67.48964 40944 ft 523 kts 30°
2026-05-08 22:52 -30.26432 -67.44438 40945 ft 524 kts 30°
2026-05-08 22:52 -30.20287 -67.39897 40946 ft 524 kts 30°
2026-05-08 22:53 -30.14199 -67.35404 40946 ft 524 kts 30°
2026-05-08 22:53 -30.08050 -67.30874 40938 ft 523 kts 30°
2026-05-08 22:54 -30.01939 -67.26378 40939 ft 523 kts 30°
2026-05-08 22:54 -29.95775 -67.21850 40939 ft 523 kts 30°
2026-05-08 22:55 -29.89689 -67.17384 40939 ft 524 kts 29°
2026-05-08 22:55 -29.83523 -67.12867 40936 ft 524 kts 28°
2026-05-08 22:56 -29.77402 -67.08390 40937 ft 524 kts 27°
2026-05-08 22:56 -29.71250 -67.03897 40938 ft 522 kts 27°
2026-05-08 22:57 -29.65294 -66.99127 40928 ft 528 kts 37°
2026-05-08 22:57 -29.59899 -66.93394 40940 ft 526 kts 36°
2026-05-08 22:58 -29.57201 -66.90569 40914 ft 511 kts 36°
2026-05-08 22:58 -29.54635 -66.87882 40840 ft 492 kts 36°
2026-05-08 22:58 -29.49583 -66.82615 40806 ft 496 kts 36°
2026-05-08 22:59 -29.44504 -66.77318 40782 ft 498 kts 36°
2026-05-08 22:59 -29.39363 -66.71963 40637 ft 500 kts 36°
2026-05-08 23:00 -29.36805 -66.69302 40184 ft 497 kts 36°
2026-05-08 23:00 -29.34236 -66.66631 39657 ft 495 kts 36°
2026-05-08 23:00 -29.31709 -66.64007 39122 ft 494 kts 36°
2026-05-08 23:00 -29.29147 -66.61347 38575 ft 494 kts 36°
2026-05-08 23:01 -29.26619 -66.58726 38035 ft 494 kts 36°
2026-05-08 23:01 -29.24062 -66.56074 37487 ft 494 kts 36°
2026-05-08 23:01 -29.21486 -66.53406 36935 ft 494 kts 36°
2026-05-08 23:01 -29.18968 -66.50800 36395 ft 494 kts 36°
2026-05-08 23:02 -29.16382 -66.48126 35841 ft 495 kts 36°
2026-05-08 23:02 -29.13864 -66.45522 35302 ft 496 kts 36°
2026-05-08 23:02 -29.11275 -66.42848 34752 ft 498 kts 36°
2026-05-08 23:02 -29.08743 -66.40234 34213 ft 496 kts 36°
2026-05-08 23:03 -29.06181 -66.37592 33659 ft 494 kts 36°
2026-05-08 23:03 -29.03662 -66.34994 33113 ft 489 kts 36°
2026-05-08 23:03 -29.01148 -66.32405 32543 ft 486 kts 36°
2026-05-08 23:03 -28.98661 -66.29845 31999 ft 481 kts 36°
2026-05-08 23:04 -28.96186 -66.27300 31462 ft 479 kts 36°
2026-05-08 23:04 -28.93721 -66.24766 30921 ft 478 kts 37°
2026-05-08 23:04 -28.91275 -66.22253 30405 ft 477 kts 37°
2026-05-08 23:04 -28.88818 -66.19730 29865 ft 473 kts 37°
2026-05-08 23:05 -28.86405 -66.17252 29341 ft 466 kts 37°
2026-05-08 23:05 -28.83941 -66.14727 28820 ft 460 kts 37°
2026-05-08 23:05 -28.81597 -66.12324 28313 ft 456 kts 37°
2026-05-08 23:05 -28.79242 -66.09914 27808 ft 451 kts 37°
2026-05-08 23:06 -28.76924 -66.07542 27313 ft 447 kts 37°
2026-05-08 23:06 -28.74630 -66.05196 26825 ft 443 kts 37°
2026-05-08 23:06 -28.72375 -66.02891 26346 ft 437 kts 37°
2026-05-08 23:06 -28.70132 -66.00599 25864 ft 432 kts 37°
2026-05-08 23:07 -28.67928 -65.98350 25397 ft 429 kts 37°
2026-05-08 23:07 -28.65712 -65.96090 24923 ft 424 kts 38°
2026-05-08 23:07 -28.63521 -65.93855 24455 ft 421 kts 38°
2026-05-08 23:07 -28.61364 -65.91656 23995 ft 417 kts 38°
2026-05-08 23:08 -28.59195 -65.89449 23533 ft 413 kts 38°
2026-05-08 23:08 -28.57089 -65.87304 23076 ft 410 kts 38°
2026-05-08 23:08 -28.54981 -65.85159 22632 ft 407 kts 38°
2026-05-08 23:08 -28.52858 -65.83002 22178 ft 405 kts 39°
2026-05-08 23:09 -28.50773 -65.80882 21735 ft 400 kts 39°
2026-05-08 23:09 -28.48683 -65.78760 21283 ft 399 kts 39°
2026-05-08 23:09 -28.46643 -65.76689 20848 ft 395 kts 39°
2026-05-08 23:09 -28.44583 -65.74599 20408 ft 393 kts 39°
2026-05-08 23:10 -28.42569 -65.72558 19980 ft 390 kts 39°
2026-05-08 23:10 -28.40534 -65.70496 19543 ft 388 kts 39°
2026-05-08 23:10 -28.38530 -65.68465 19118 ft 386 kts 40°
2026-05-08 23:10 -28.36548 -65.66458 18695 ft 383 kts 40°
2026-05-08 23:11 -28.34557 -65.64445 18271 ft 382 kts 40°
2026-05-08 23:11 -28.32617 -65.62482 17858 ft 379 kts 40°
2026-05-08 23:11 -28.30644 -65.60487 17436 ft 376 kts 40°
2026-05-08 23:11 -28.28675 -65.58498 17015 ft 375 kts 40°
2026-05-08 23:12 -28.26754 -65.56558 16608 ft 373 kts 40°
2026-05-08 23:12 -28.24822 -65.54608 16196 ft 371 kts 40°
2026-05-08 23:12 -28.22883 -65.52653 15783 ft 369 kts 41°
2026-05-08 23:12 -28.20985 -65.50738 15376 ft 369 kts 41°
2026-05-08 23:13 -28.19093 -65.48832 14977 ft 366 kts 41°
2026-05-08 23:13 -28.17207 -65.46933 14577 ft 364 kts 41°
2026-05-08 23:13 -28.15399 -65.45113 14194 ft 363 kts 41°
2026-05-08 23:13 -28.13518 -65.43220 13787 ft 362 kts 41°
2026-05-08 23:14 -28.11656 -65.41347 13390 ft 360 kts 41°
2026-05-08 23:14 -28.09798 -65.39479 12996 ft 359 kts 41°
2026-05-08 23:14 -28.07929 -65.37601 12607 ft 357 kts 41°
2026-05-08 23:14 -28.06087 -65.35751 12201 ft 357 kts 41°
2026-05-08 23:15 -28.04231 -65.33888 11827 ft 352 kts 41°
2026-05-08 23:15 -28.02396 -65.32046 11460 ft 351 kts 41°
2026-05-08 23:15 -28.00580 -65.30225 11080 ft 349 kts 41°
2026-05-08 23:15 -27.98792 -65.28432 10705 ft 334 kts 41°
2026-05-08 23:16 -27.97166 -65.26804 10339 ft 302 kts 41°
2026-05-08 23:16 -27.95615 -65.25250 9984 ft 286 kts 41°
2026-05-08 23:16 -27.94130 -65.23763 9693 ft 286 kts 41°
2026-05-08 23:16 -27.92651 -65.22284 9396 ft 285 kts 41°
2026-05-08 23:17 -27.91161 -65.20792 9091 ft 284 kts 41°
2026-05-08 23:17 -27.89688 -65.19319 8782 ft 283 kts 41°
2026-05-08 23:17 -27.88217 -65.17848 8467 ft 282 kts 41°
2026-05-08 23:17 -27.86749 -65.16382 8153 ft 280 kts 41°
2026-05-08 23:18 -27.85287 -65.14921 7844 ft 279 kts 41°
2026-05-08 23:18 -27.83835 -65.13471 7539 ft 278 kts 41°
2026-05-08 23:18 -27.82403 -65.12042 7234 ft 277 kts 41°
2026-05-08 23:18 -27.80965 -65.10607 6929 ft 276 kts 41°
2026-05-08 23:19 -27.79536 -65.09182 6625 ft 274 kts 41°
2026-05-08 23:19 -27.78099 -65.07750 6320 ft 273 kts 41°
2026-05-08 23:19 -27.76680 -65.06335 6019 ft 272 kts 41°
2026-05-08 23:19 -27.75263 -65.04923 5718 ft 272 kts 41°
2026-05-08 23:20 -27.73856 -65.03522 5429 ft 270 kts 41°
2026-05-08 23:20 -27.72474 -65.02145 5177 ft 269 kts 41°
2026-05-08 23:20 -27.71097 -65.00775 4887 ft 254 kts 41°
2026-05-08 23:20 -27.69886 -64.99570 4610 ft 237 kts 41°
2026-05-08 23:21 -27.68634 -64.98325 4343 ft 220 kts 41°
2026-05-08 23:21 -27.67520 -64.97217 4116 ft 211 kts 41°
2026-05-08 23:21 -27.66430 -64.96133 3901 ft 209 kts 41°
2026-05-08 23:21 -27.65341 -64.95057 3675 ft 209 kts 38°
2026-05-08 23:22 -27.64009 -64.94473 3414 ft 207 kts
2026-05-08 23:22 -27.62599 -64.94289 3228 ft 200 kts
2026-05-08 23:22 -27.61251 -64.94191 2993 ft 187 kts
2026-05-08 23:22 -27.59955 -64.94122 2741 ft 185 kts
2026-05-08 23:23 -27.58686 -64.94057 2518 ft 178 kts
2026-05-08 23:23 -27.57511 -64.93996 2285 ft 164 kts
2026-05-08 23:23 -27.56398 -64.93940 2067 ft 153 kts
2026-05-08 23:23 -27.55424 -64.93890 1841 ft 128 kts
2026-05-08 23:24 -27.54578 -64.93847 1684 ft 124 kts
2026-05-08 23:24 -27.53929 -64.93814 1567 ft 125 kts
2026-05-08 23:24 -27.52866 -64.93759 1369 ft 125 kts
2026-05-08 23:24 -27.52002 -64.93716 1204 ft 125 kts
2026-05-08 23:25 -27.51130 -64.93670 1039 ft 125 kts
2026-05-08 23:25 -27.50267 -64.93617 929 ft 116 kts
2026-05-08 23:25 -27.49671 -64.93589 927 ft 48 kts
2026-05-08 23:25 -27.49416 -64.93576 927 ft 22 kts
2026-05-08 23:26 -27.49352 -64.93579 927 ft 3 kts 246°
2026-05-08 23:26 -27.49388 -64.93582 927 ft 7 kts 176°
2026-05-08 23:26 -27.49457 -64.93579 927 ft 13 kts 181°
2026-05-08 23:26 -27.49576 -64.93581 927 ft 20 kts 185°
2026-05-08 23:27 -27.49743 -64.93592 927 ft 28 kts 182°
2026-05-08 23:27 -27.49970 -64.93600 927 ft 35 kts 182°
2026-05-08 23:27 -27.50174 -64.93613 927 ft 25 kts 179°
2026-05-08 23:27 -27.50327 -64.93587 927 ft 18 kts 147°
2026-05-08 23:28 -27.50401 -64.93516 927 ft 14 kts 139°
2026-05-08 23:28 -27.50470 -64.93448 927 ft 9 kts 137°
2026-05-08 23:28 -27.50520 -64.93397 927 ft 10 kts 138°
2026-05-08 23:28 -27.50551 -64.93362 927 ft 4 kts 125°
2026-05-08 23:29 -27.50561 -64.93330 927 ft 3 kts 94°
2026-05-08 23:29 -27.50567 -64.93302 927 ft 2 kts 120°
2026-05-08 23:29 -27.50575 -64.93294 927 ft 0 kts 139°